weather.gov     
National Weather Service

Regional Weather Roundup
NWS Homepage
This page is being discontinued on March 12, 2014.
The same data is available at this site. Please update your bookmarks.
Thank you, and we apologize for the inconvenience.
Please send an email to SR-SRH.Webmaster@noaa.gov with any concerns.


Current Version
Previous Version:    01  02  03  04  05  06  07  08  09  10  11  12  13  14  15  16  17  18  19  20  21  22  23  24  25  26  27  28  29  30  
   31  32  33  34  35  36  37  38  39  40  41  42  43  44  45  46  47  48  49  50  51  52  53  54  55  56  57  58  59  60  
[Printable]
875
ASUS43 KJKL 231919
RWRJKL

EAST KENTUCKY HOURLY WEATHER ROUNDUP
NATIONAL WEATHER SERVICE JACKSON KY
300 PM EDT WED APR 23 2014

NOTE: "FAIR" INDICATES FEW OR NO CLOUDS BELOW 12,000 FEET WITH
NO SIGNIFICANT WEATHER AND/OR OBSTRUCTIONS TO VISIBILITY.

* THESE REPORTS ARE NOT UNDER NWS QUALITY CONTROL AND MAY NOT
  REPORT WEATHER SUCH AS PRECIPITATION AND FOG.

KYZ079-080-083-085-087-088-110-112-115-119-120-232000
...EASTERN KENTUCKY...

CITY           SKY/WX    TMP DP  RH WIND       PRES   REMARKS
JACKSON        SUNNY     62  29  28 VRB3      30.03F
LONDON         SUNNY     64  30  27 VRB3      30.03F
SOMERSET*      SUNNY     61  30  31 N9        30.05F
WILLIAMSBURG*  SUNNY     64  28  25 NW6       30.02F
MIDDLESBORO*   SUNNY     65  29  26 NW9       30.02S
HARLAN APT*    CLEAR     64  23  20 N6        30.01S
BLACK MTN*       N/A     55  23  28 N5          N/A
PIKEVILLE APT* SUNNY     57  30  35 N7        30.02F
BIG SANDY*     CLEAR     59  30  32 NW12      30.03S
MOREHEAD APT*  CLEAR     59  32  36 N9          N/A
$$

KYZ035-036-041-042-044-050-067-078-099-232000
...CENTRAL KENTUCKY...

CITY           SKY/WX    TMP DP  RH WIND       PRES   REMARKS
MT STERLING*   SUNNY     57  34  41 W3        30.08R
FLEMING/MASON* SUNNY     55  32  41 N10       30.08S
DANVILLE*      SUNNY     55  34  44 E3        30.07F
RICHMOND*      SUNNY     57  32  38 NW7       30.06F
LEXINGTON      SUNNY     58  34  40 N9        30.07F
FRANKFORT      SUNNY     58  29  33 VRB6      30.06F
$$

KYZ091>093-OHZ055-061-077-WVZ005-015-034-035-042-232000
...SOUTHERN OHIO/WEST VIRGINIA...

CITY           SKY/WX    TMP DP  RH WIND       PRES   REMARKS
COVINGTON      MOSUNNY   58  30  34 N8        30.08S
COLUMBUS       MOSUNNY   55  34  44 N9G21     30.07S
DAYTON         MOSUNNY   55  34  45 NE3       30.09S
WILMINGTON     MOSUNNY   56  32  40 N10       30.07S
HUNTINGTON     SUNNY     58  30  34 MISG      30.03F
CHARLESTON     MOSUNNY   56  30  37 NW10G20   30.01S
PINEVILLE*     SUNNY     60  32  33 MISG      30.03S
BECKLEY        SUNNY     54  28  36 NW10G22   29.97S
BLUEFIELD      SUNNY     58  23  26 NW8G18    29.97R
$$

VAZ002-007-008-TNZ017-027-036-066-071-232000
...SOUTHWEST VIRGINIA/EAST TENNESSEE...

CITY           SKY/WX    TMP DP  RH WIND       PRES   REMARKS
WISE*          SUNNY     59  27  29 NW8       30.01S
ABINGDON*      SUNNY     62  20  20 N9        29.97S
BRISTOL        SUNNY     67  19  16 W10       29.98S
KNOXVILLE      MOSUNNY   66  31  27 E7        29.99F
OAK RIDGE      SUNNY     68  29  23 CALM      30.00F
CROSSVILLE     SUNNY     63  27  25 VRB3      30.01F
NASHVILLE      MOSUNNY   68  33  27 NE8       30.04F
$$

...KEY TO REMARKS...
VSB - VISIBILITY IN MILES
WCI - WIND CHILL INDEX
HX  - HEAT INDEX

$$




U.S. Dept. of Commerce
NOAA National Weather Service
1325 East West Highway
Silver Spring, MD 20910
E-mail: w-nws.webmaster@noaa.gov
Page last modified: May 16, 2007
NATIONAL WEATHER SERVICE: for Safety, for Work, for Fun - FOR LIFE